Flag Weather past 2 weeks in Bocholt, North Rhine-Westphalia, Germany

Now
46 °F

Sunny.


Feels Like: 41 °F
Forecast: 44 / 53 °F
Wind: 10 mph from Southeast

Location: Niederrhein

Current Time: Nov 22, 2014 at 11:44:55 AM

Latest Report: Nov 22, 2014 at 10:50 AM


Visibility: 10 mi

Pressure: 30.07 "Hg

Humidity: 87%

Dew point: 43 °F

Location of BocholtLocation

Historic Weather in Bocholt — Graph

°F

Bocholt temperature yesterday

Maximum temperature yesterday: 48 °F (at 12:50 PM)
Minimum temperature yesterday: 37 °F (at 4:50 AM)
Average temperature yesterday: 42 °F

Past Weeks' High & Low Weather Summary

 TemperatureHumidityPressure
High57 °F (Nov 8, 1:50 PM)100% (Nov 7, 8:20 PM)30.33 "Hg (Nov 7, 8:20 PM)
Low37 °F (Nov 21, 4:50 AM)63% (Nov 8, 1:50 PM)29.50 "Hg (Nov 16, 2:50 PM)
Average48 °F93%29.82 "Hg
* Reported Nov 7 10:20 AM — Nov 22 10:50 AM, Bocholt, Weather by CustomWeather, © 2014

Note: Actual official high and low records may vary slightly from our data, if they occured in-between our weather recording intervals... More about our weather records

Advertising

Bocholt weather history for previous 24 hours

 ConditionsComfort  
Time TempWeatherWind HumidityBarometerVisibility
10:50 AM
Nov 22
46 °FSunny.10 mph87%30.07 "Hg10 mi
10:20 AM46 °FSunny.9 mph87%30.07 "Hg10 mi
9:50 AM45 °FSunny.9 mph93%30.07 "Hg10 mi
9:20 AM43 °FSunny.8 mph93%30.07 "Hg10 mi
8:50 AM43 °FClear.7 mph93%30.07 "Hg5 mi
8:20 AM41 °FClear.8 mph100%30.07 "Hg4 mi
7:50 AM41 °FClear.9 mph100%30.07 "Hg4 mi
7:20 AM41 °FClear.9 mph100%30.07 "Hg5 mi
6:50 AM41 °FClear.8 mph100%30.07 "Hg5 mi
6:20 AM41 °FClear.7 mph93%30.07 "Hg5 mi
5:50 AM39 °FClear.8 mph100%30.07 "Hg10 mi
5:20 AM37 °FClear.8 mph100%30.07 "Hg10 mi
4:50 AM37 °FClear.5 mph100%30.07 "Hg10 mi
11:50 PM
Nov 21
39 °FPassing clouds.6 mph93%30.09 "HgN/A
11:20 PM41 °FPassing clouds.6 mph93%30.09 "HgN/A
10:20 PM41 °FPassing clouds.6 mph93%30.09 "HgN/A
9:50 PM39 °FPassing clouds.7 mph100%30.09 "HgN/A
9:20 PM41 °FPassing clouds.6 mph93%30.12 "HgN/A
8:50 PM41 °FPassing clouds.6 mph100%30.12 "HgN/A
8:20 PM43 °FPassing clouds.6 mph93%30.12 "HgN/A
7:50 PM43 °FPassing clouds.6 mph93%30.12 "HgN/A
7:20 PM43 °FClear.3 mph93%30.12 "Hg10 mi
6:50 PM43 °FPassing clouds.5 mph87%30.12 "HgN/A
6:20 PM45 °FPassing clouds.5 mph81%30.12 "HgN/A
5:50 PM45 °FPassing clouds.5 mph81%30.12 "HgN/A
5:20 PM45 °FPassing clouds.5 mph81%30.12 "HgN/A
4:50 PM46 °FPassing clouds.5 mph76%30.12 "HgN/A
4:20 PM46 °FPassing clouds.5 mph76%30.12 "HgN/A
3:50 PM48 °FPassing clouds.5 mph71%30.12 "HgN/A
3:20 PM48 °FPassing clouds.6 mph71%30.15 "HgN/A
2:50 PM48 °FPassing clouds.7 mph76%30.15 "HgN/A
2:20 PM48 °FPassing clouds.7 mph76%30.15 "HgN/A
1:50 PM48 °FPassing clouds.9 mph76%30.15 "HgN/A
1:20 PM48 °FPassing clouds.9 mph76%30.15 "HgN/A
12:50 PM48 °FPassing clouds.8 mph76%30.18 "HgN/A
12:20 PM46 °FPassing clouds.8 mph82%30.18 "HgN/A
11:50 AM45 °FPassing clouds.8 mph87%30.21 "HgN/A
11:20 AM45 °FPassing clouds.8 mph87%30.21 "HgN/A
Weather by CustomWeather, © 2014

See weather overviewHow to use our weather pages